DateTimeUTC,F1_A11,F1_S11,BsB_S11,BsG_S11,BsR_S11,BbsB_S11,BbsG_S11,BbsR_S11,BaB_A11,BaG_A11,BaR_A11,Tu_S11,T_S11,Uu_S11,U_S11,P_S11,T1_A11
2021-02-06T11:00:00Z,00000200,21000000,,,,,,,0000.32,0000.22,0000.50,15.4,22.9,,00.0,0652.0,30.8
2021-02-06T11:01:00Z,00000200,21000000,,,,,,,0000.49,0000.21,0000.06,15.4,22.9,,00.0,0652.0,30.8
2021-02-06T11:02:00Z,00000200,21000000,,,,,,,0000.69,0000.61,0000.30,15.4,22.9,,00.0,0651.9,30.8
2021-02-06T11:03:00Z,00000200,61000000,,,,,,,0000.46,0000.54,0000.85,15.4,23.0,,00.0,0651.9,30.8
2021-02-06T11:04:00Z,00000200,41000000,0000.09,0000.13,0000.06,0000.28,-000.06,-000.10,0000.09,0000.31,-000.13,15.8,22.8,,00.0,0652.7,30.9
2021-02-06T11:05:00Z,00000200,01000000,0000.01,-000.25,0000.20,0000.51,0000.29,-000.01,-000.03,0000.12,0000.03,15.9,22.8,,00.0,0652.8,30.9
2021-02-06T11:06:00Z,00000200,01000000,-000.44,-000.02,0000.06,0000.59,0000.19,-000.29,-000.34,-000.24,0000.23,16.0,22.8,,00.0,0652.8,30.9
2021-02-06T11:07:00Z,00000200,01000000,-000.91,0000.16,0000.00,0000.11,0000.18,-000.15,0000.33,-000.08,0000.00,16.1,22.9,,00.0,0652.9,30.9
2021-02-06T11:08:00Z,00000200,01000000,0000.50,-000.09,-000.07,-000.08,0000.06,-000.02,-000.21,-000.05,-000.70,16.1,22.9,,00.0,0652.9,30.9
2021-02-06T11:09:00Z,00000200,01000000,-000.09,0000.17,0000.16,0000.35,0000.08,0000.01,0000.07,-000.00,0000.42,16.2,22.9,,00.0,0652.9,30.9
2021-02-06T11:10:00Z,00000200,01000000,-000.41,0000.18,-000.07,-000.10,0000.22,0000.14,0000.16,0000.24,-000.14,16.2,22.9,,00.0,0652.9,30.9
2021-02-06T11:11:00Z,00000200,01000000,-000.47,-000.03,-000.04,0000.19,0000.28,-000.15,-000.14,0000.28,0000.32,16.2,22.9,,00.0,0652.9,30.9
2021-02-06T11:12:00Z,00000200,01000000,-000.04,-000.10,0000.21,0000.40,0000.12,0000.10,0000.08,-000.11,0000.08,16.1,22.9,,00.0,0653.0,30.9
2021-02-06T11:13:00Z,00000200,01000000,-000.32,0000.03,-000.12,0000.41,0000.11,-000.17,0000.40,-000.35,-000.06,16.1,22.8,,00.0,0653.0,30.9
2021-02-06T11:14:00Z,00000200,01000000,-000.49,-000.07,-000.22,0000.27,-000.02,0000.16,-000.28,0000.17,0000.18,16.0,22.8,,00.0,0653.0,30.9
2021-02-06T11:15:00Z,00000200,01000000,-000.41,0000.31,0000.15,0000.06,0000.11,-000.03,0000.34,0000.60,-000.28,16.0,22.8,,00.0,0653.0,30.9
2021-02-06T11:16:00Z,00000200,01000000,-000.90,-000.35,0000.02,-000.28,0000.06,0000.02,-000.03,-000.32,0000.37,16.0,22.8,,00.0,0653.0,30.9
2021-02-06T11:17:00Z,00000200,01000000,-000.10,0000.07,0000.24,0000.17,0000.20,0000.07,-000.03,-000.09,0000.19,16.0,22.8,,00.0,0653.0,30.9
2021-02-06T11:18:00Z,00000200,01000000,-000.26,0000.11,-000.07,0000.60,0000.20,-000.02,0000.08,0000.26,-000.33,16.1,22.8,,00.0,0653.0,30.9
2021-02-06T11:19:00Z,00000200,01000000,-000.42,-000.08,-000.16,0000.08,-000.09,-000.22,-000.14,0000.28,-000.11,16.1,22.8,,00.0,0653.1,30.9
2021-02-06T11:20:00Z,00000200,01000000,0000.04,-000.03,-000.07,0000.22,0000.13,-000.17,-000.04,-000.57,0000.25,16.0,22.8,,00.0,0653.1,30.9
2021-02-06T11:21:00Z,00000200,01000000,0000.03,0000.21,-000.05,0000.09,0000.23,-000.22,-000.00,-000.04,-000.60,16.0,22.8,,00.0,0653.2,30.8
2021-02-06T11:22:00Z,00000200,01000000,-000.24,-000.04,-000.01,0000.51,0000.00,-000.04,0000.12,0000.23,0000.58,15.9,22.8,,00.0,0653.2,30.8
2021-02-06T11:23:00Z,00000200,01000000,0000.09,0000.27,-000.09,-000.13,0000.13,0000.02,-000.05,0000.09,-000.17,15.9,22.7,,00.0,0653.2,30.8
2021-02-06T11:24:00Z,00000200,01000000,-000.43,0000.16,0000.07,0000.71,0000.18,0000.05,0000.55,0000.49,0000.17,15.9,22.7,,00.0,0653.1,30.8
2021-02-06T11:25:00Z,00000200,01000000,0000.45,0000.25,0000.14,-000.25,0000.34,0000.37,0000.14,-000.07,0000.27,15.8,22.7,,00.0,0653.1,30.8
2021-02-06T11:26:00Z,00000200,01000000,0000.04,-000.01,-000.10,0000.14,0000.12,-000.13,-000.06,0000.37,0000.01,15.7,22.6,,00.0,0653.1,30.8
2021-02-06T11:27:00Z,00000200,01000000,-000.24,-000.21,-000.10,0000.10,0000.11,0000.19,0000.59,0000.02,0000.45,15.7,22.6,,00.0,0653.1,30.8
2021-02-06T11:28:00Z,00000200,01000000,-000.07,0000.39,0000.01,0000.88,0000.20,-000.08,0000.16,0000.20,-000.01,15.6,22.6,,00.0,0653.1,30.8
2021-02-06T11:29:00Z,00000200,01000000,0000.05,0000.08,-000.08,0000.09,0000.21,-000.03,-000.13,-000.16,-000.17,15.6,22.5,,00.0,0653.1,30.8
2021-02-06T11:30:00Z,00000200,01000000,-000.00,-000.02,-000.16,0000.14,0000.06,0000.05,-000.00,-000.11,0000.32,15.6,22.5,,00.0,0653.1,30.8
2021-02-06T11:31:00Z,00000200,01000000,-000.09,0000.09,-000.18,-000.35,0000.13,-000.01,0000.52,0000.30,0000.01,15.6,22.5,,00.0,0653.1,30.8
2021-02-06T11:32:00Z,00000200,01000000,0000.03,0000.33,-000.16,0000.36,0000.10,0000.16,-000.27,0000.15,-000.19,15.6,22.6,,00.0,0653.1,30.8
2021-02-06T11:33:00Z,00000200,01000000,-000.46,-000.12,-000.02,-000.19,0000.28,-000.02,-000.03,0000.02,0000.07,15.7,22.6,,00.0,0653.1,30.8
2021-02-06T11:34:00Z,00000200,01000000,-000.12,0000.38,-000.03,0000.22,0000.28,0000.08,0000.10,-000.01,0000.01,15.7,22.6,,00.0,0653.1,30.8
2021-02-06T11:35:00Z,00000200,01000000,-000.13,-000.18,-000.31,-000.25,-000.16,-000.14,-000.01,0000.06,0000.11,15.7,22.6,,00.0,0653.1,30.8
2021-02-06T11:36:00Z,00000200,01000000,-000.42,0000.11,0000.13,-000.41,-000.08,0000.02,0000.53,0000.11,-000.16,15.6,22.5,,00.0,0653.1,30.8
2021-02-06T11:37:00Z,00000200,01000000,0000.19,0000.40,-000.20,0000.50,0000.22,-000.11,0000.33,0000.66,0000.70,15.6,22.5,,00.0,0653.0,30.8
2021-02-06T11:38:00Z,00000200,01000000,-000.43,-000.12,0000.03,-000.39,-000.14,0000.10,0000.14,0000.14,-000.02,15.5,22.5,,00.0,0653.0,30.8
2021-02-06T11:39:00Z,00000200,01000000,0000.09,0000.20,0000.06,0000.37,0000.09,-000.00,-000.13,-000.27,0000.10,15.5,22.4,,00.0,0653.1,30.8
2021-02-06T11:40:00Z,00000200,01000000,-000.50,-000.01,-000.12,0000.14,0000.17,0000.02,0000.05,-000.05,-000.19,15.4,22.4,,00.0,0653.1,30.8
2021-02-06T11:41:00Z,00000200,01000000,-000.34,0000.02,0000.15,0000.52,0000.17,0000.02,-000.15,0000.00,-000.13,15.4,22.4,,00.0,0653.1,30.8
2021-02-06T11:42:00Z,00000200,01000000,-000.90,0000.18,0000.00,0000.12,0000.34,0000.12,0000.09,0000.00,0000.11,15.4,22.4,,00.0,0653.2,30.8
2021-02-06T11:43:00Z,00000200,01000000,-000.23,-000.00,0000.02,-000.11,-000.04,0000.15,-000.17,0000.03,-000.04,15.3,22.4,,00.0,0653.2,30.8
2021-02-06T11:44:00Z,00000200,01000000,-000.01,0000.22,-000.03,0000.72,0000.28,-000.02,0000.04,-000.83,0000.03,15.2,22.3,,00.0,0653.2,30.8
2021-02-06T11:45:00Z,00000200,01000000,-000.10,-000.28,-000.32,0000.04,0000.26,-000.14,0000.05,0000.58,0000.26,15.2,22.3,,00.0,0653.1,30.8
2021-02-06T11:46:00Z,00000200,01000000,-000.53,0000.38,0000.14,0000.35,-000.16,-000.25,0000.29,0000.93,-000.09,15.3,22.3,,00.0,0653.1,30.8
2021-02-06T11:47:00Z,00000200,01000000,0000.49,-000.05,0000.00,0000.42,-000.01,0000.04,0000.80,-000.16,0000.37,15.3,22.3,,00.0,0653.0,30.8
2021-02-06T11:48:00Z,00000200,01000000,0000.37,0000.03,-000.01,-000.45,0000.16,0000.17,0000.22,0000.35,0000.27,15.4,22.3,,00.0,0653.1,30.8
2021-02-06T11:49:00Z,00000200,01000000,0000.73,-000.22,-000.31,0000.71,0000.18,-000.23,0000.13,0000.22,0000.05,15.5,22.3,,00.0,0653.1,30.8
2021-02-06T11:50:00Z,00000200,01000000,0000.36,0000.16,-000.03,0000.28,0000.13,-000.03,-000.28,0000.10,0000.27,15.6,22.4,,00.0,0653.1,30.8
2021-02-06T11:51:00Z,00000200,01000000,-000.66,0000.06,0000.10,0000.32,0000.07,0000.28,0000.12,0000.30,-000.14,15.6,22.4,,00.0,0653.2,30.8
2021-02-06T11:52:00Z,00000200,01000000,0000.12,0000.10,-000.08,-000.01,0000.03,-000.19,0000.04,-000.14,0000.08,15.7,22.4,,00.0,0653.2,30.8
2021-02-06T11:53:00Z,00000200,01000000,-000.07,-000.12,0000.20,0000.24,0000.24,0000.10,-000.09,0000.19,0000.05,15.8,22.5,,00.0,0653.2,30.9
2021-02-06T11:54:00Z,00000200,01000000,-000.43,-000.45,-000.04,0000.11,0000.12,-000.06,-000.29,-000.64,-000.02,15.8,22.5,,00.0,0653.3,30.9
2021-02-06T11:55:00Z,00000200,01000000,0000.45,-000.03,0000.24,0000.20,-000.01,-000.03,0000.37,0000.38,0000.03,15.9,22.5,,00.0,0653.3,30.9
2021-02-06T11:56:00Z,00000200,01000000,0000.12,0000.06,0000.18,-000.60,0000.05,-000.14,0000.21,-000.03,-000.00,15.9,22.6,,00.0,0653.2,30.9
2021-02-06T11:57:00Z,00000200,41000000,,,,,,,-000.52,0000.10,-000.03,16.0,22.6,,00.0,0653.3,30.9
2021-02-06T11:58:00Z,00000200,61000000,,,,,,,0000.05,-000.37,0000.04,15.6,22.7,,00.0,0652.3,30.9
2021-02-06T11:59:00Z,00000200,21000000,,,,,,,-000.15,-000.23,-000.43,15.5,22.8,,00.0,0652.3,30.8
